Torna al catalogo

STARLINK-32500

AttivoComunicazioniVLEO
NORAD 61935·PAYLOAD·🇺🇸 United States

Lanciato Nov 11, 2024 da Cape Canaveral Space Force Station

Loading…

Prossimi Passaggi (prossime 24 ore)

TLE

AggiornatoSource: CelesTrak SupGP

Epoca: Sep 14, 2026, 22:52 UTC

1 61935C 24207Z   26257.95326389  .00023610  00000+0  85527-3 0  2574
2 61935  43.0003 296.5061 0001341 262.4265 165.8562 15.27561707    16

Traccia STARLINK-32500 in tempo reale con AllMySat

Download on the App Store